Weather History for PAWI - March, 2013

Change the Weather History Date:

Saturday, March 30, 2013

  Actual Average (PABR) Record (PABR)
Temperature  
Mean Temperature -11 °F -9 °F  
Max Temperature -2 °F -2 °F 27 °F (1927)
Min Temperature -20 °F -15 °F -42 °F (1944)
Degree Days  
Heating Degree Days 76 74  
Month to date heating degree days 2331  
Since 1 July heating degree days 15179  
Cooling Degree Days 0    
Month to date cooling degree days  
Year to date cooling degree days  
Moisture  
Dew Point -18 °F    
Average Humidity 72    
Maximum Humidity 77    
Minimum Humidity 68    
Precipitation  
Precipitation 0.00 in 0.01 in 0.14 in (1963)
Month to date precipitation 0.09  
Year to date precipitation 0.36  
Snow  
Snow 0.00 in 0.00 in 2.10 in (1930)
Month to date snowfall 2.0  
Since 1 July snowfall 31.0  
Snow Depth -    
Sea Level Pressure  
Sea Level Pressure 30.22 in    
Wind  
Wind Speed 12 mph (NE)    
Max Wind Speed 16 mph    
Max Gust Speed -    
Visibility 6 miles    
Events Snow    
T = Trace of Precipitation, MM = Missing Value Source: NWS Daily Summary

Daily Weather History Graph

Daily Weather History Graph

Search for Another Location

Airport or City:

Trip Planner

Search our weather history database for the weather conditions in past years. The results will help you decide how hot, cold, wet, or windy it might be!

Date:

Astronomy

Mar. 30, 2013 Rise Set
Actual Time 7:48 AM AKDT 9:43 PM AKDT
Civil Twilight 6:40 AM AKDT 10:51 PM AKDT
Nautical Twilight 5:01 AM AKDT 12:33 AM AKDT
Astronomical Twilight Sun does not set Sun does not set
Moon 3:47 AM AKDT (3/30) 6:51 AM AKDT (3/30)
Length of Visible Light 16h 10m
Length of Day
13h 55m
Waning Gibbous, 85% of the Moon is Illuminated
Mar 30
Waning Gibbous
Apr 2
Last Quarter
Apr 10
New
Apr 18
First Quarter
Apr 25
Full

Hourly Weather History & Observations

Time (AKDT) Temp. Windchill Dew Point Humidity Pressure Visibility Wind Dir Wind Speed Gust Speed Precip Events Conditions
12:53 AM -18.9 °F -40.8 °F -25.1 °F 74% 30.13 in 10.0 mi NE 11.5 mph - N/A   Clear
1:53 AM -18.9 °F -39.8 °F -25.1 °F 74% 30.14 in 10.0 mi NE 10.4 mph - N/A   Clear
2:53 AM -20.0 °F -39.9 °F -26.0 °F 74% 30.14 in 10.0 mi NE 9.2 mph - N/A   Clear
3:53 AM -20.0 °F -41.1 °F -26.0 °F 74% 30.15 in 10.0 mi NE 10.4 mph - N/A   Clear
4:53 AM -20.0 °F -39.9 °F -27.0 °F 70% 30.16 in 10.0 mi NE 9.2 mph - N/A   Clear
5:53 AM -18.0 °F -38.6 °F -25.1 °F 70% 30.17 in 10.0 mi NE 10.4 mph - N/A   Overcast
6:53 AM -15.0 °F -36.8 °F -22.0 °F 71% 30.17 in 10.0 mi ENE 12.7 mph - N/A   Overcast
7:53 AM -15.0 °F -35.9 °F -22.0 °F 71% 30.18 in 10.0 mi NE 11.5 mph - N/A   Overcast
8:53 AM -16.1 °F -38.2 °F -23.1 °F 71% 30.19 in 10.0 mi NE 12.7 mph - N/A   Overcast
9:53 AM -16.1 °F -38.2 °F -23.1 °F 71% 30.19 in 8.0 mi NE 12.7 mph - 0.00 in Snow Light Snow
10:21 AM -14.8 °F -37.5 °F -22.0 °F 70% 30.20 in 2.0 mi ENE 13.8 mph - 0.00 in Snow Light Snow
10:51 AM -14.8 °F -38.3 °F -20.2 °F 77% 30.20 in 3.0 mi NE 15.0 mph - 0.00 in   Haze
10:53 AM -14.1 °F -37.4 °F -20.9 °F 71% 30.21 in 3.0 mi NE 15.0 mph - 0.00 in   Haze
11:11 AM -14.8 °F -39.1 °F -20.2 °F 77% 30.21 in 1.8 mi NE 16.1 mph - 0.00 in Snow Light Snow
11:29 AM -13.0 °F -35.2 °F -20.2 °F 70% 30.21 in 2.0 mi NE 13.8 mph - 0.00 in   Haze
11:53 AM -11.9 °F -35.4 °F -18.9 °F 71% 30.22 in 2.5 mi NE 16.1 mph - 0.00 in   Haze
12:03 PM -11.2 °F -33.7 °F -18.4 °F 70% 30.22 in 3.0 mi NE 15.0 mph - N/A   Haze
12:11 PM -11.2 °F -34.4 °F -18.4 °F 70% 30.22 in 2.5 mi NE 16.1 mph - N/A   Haze
12:50 PM -9.4 °F -30.6 °F -16.6 °F 71% 30.22 in 1.8 mi NE 13.8 mph - N/A   Haze
12:53 PM -9.0 °F -30.9 °F -16.1 °F 71% 30.22 in 1.8 mi NE 15.0 mph - N/A   Haze
1:12 PM -7.6 °F -29.1 °F -14.8 °F 71% 30.22 in 2.5 mi NE 15.0 mph - N/A   Haze
1:22 PM -7.6 °F -28.3 °F -14.8 °F 71% 30.22 in 3.0 mi NE 13.8 mph - N/A   Haze
1:53 PM -6.0 °F -27.7 °F -13.0 °F 72% 30.22 in 3.0 mi NE 16.1 mph - N/A   Haze
2:53 PM -5.1 °F -25.9 °F -11.9 °F 72% 30.23 in 4.0 mi ENE 15.0 mph - N/A   Haze
3:53 PM -2.9 °F -22.4 °F -9.9 °F 72% 30.24 in 7.0 mi ENE 13.8 mph - N/A   Overcast
4:53 PM -2.9 °F -21.6 °F -9.9 °F 72% 30.25 in 5.0 mi ENE 12.7 mph - 0.00 in Snow Light Snow
5:53 PM -2.9 °F -21.6 °F -9.9 °F 72% 30.25 in 4.0 mi ENE 12.7 mph - 0.00 in Snow Light Snow
6:53 PM -2.9 °F -19.8 °F -11.0 °F 68% 30.26 in 3.0 mi ENE 10.4 mph - 0.00 in Snow Light Snow
7:48 PM -5.8 °F -21.2 °F -11.2 °F 77% 30.26 in 5.0 mi ENE 8.1 mph - 0.00 in   Haze
7:53 PM -5.1 °F -20.4 °F -11.9 °F 72% 30.26 in 5.0 mi ENE 8.1 mph - 0.00 in   Haze
8:01 PM -5.8 °F -21.2 °F -11.2 °F 77% 30.26 in 4.0 mi ENE 8.1 mph - N/A   Haze
8:53 PM -9.0 °F -23.8 °F -15.0 °F 75% 30.26 in 10.0 mi ENE 6.9 mph - N/A   Overcast
9:53 PM -11.0 °F -24.6 °F -17.0 °F 75% 30.27 in 10.0 mi ENE 5.8 mph - N/A   Overcast
10:11 PM -11.2 °F -26.4 °F -16.6 °F 77% 30.27 in 9.0 mi ENE 6.9 mph - N/A   Overcast
10:25 PM -11.2 °F -26.4 °F -18.4 °F 70% 30.27 in 9.0 mi ENE 6.9 mph - N/A   Overcast
10:53 PM -11.9 °F -27.3 °F -18.0 °F 74% 30.28 in 10.0 mi ENE 6.9 mph - N/A   Overcast
11:53 PM -11.9 °F -25.7 °F -18.9 °F 71% 30.29 in 7.0 mi ENE 5.8 mph - 0.00 in   Overcast